Weather History for Port Heiden, AK

Change the Weather History Date:

Friday, October 26, 2012

  Actual Average Record
Temperature  
Mean Temperature 32 °F -  
Max Temperature 39 °F 37 °F 53 °F (2013)
Min Temperature 26 °F 27 °F 16 °F (1996)
Degree Days  
Heating Degree Days 32    
Moisture  
Dew Point 29 °F    
Average Humidity 82    
Maximum Humidity 100    
Minimum Humidity 55    
Precipitation  
Precipitation 0.01 in - - ()
Sea Level Pressure  
Sea Level Pressure 30.16 in    
Wind  
Wind Speed 22 mph (NE)    
Max Wind Speed 64 mph    
Max Gust Speed -    
Visibility 10 miles    
Events      
Averages and records for this station are not official NWS values.
T = Trace of Precipitation, MM = Missing Value Source: NWS Daily Summary

Daily Weather History Graph

Daily Weather History Graph

Search for Another Location

Airport:

Trip Planner

Search our weather history database for the weather conditions in past years. The results will help you decide how hot, cold, wet, or windy it might be!

Date:

Astronomy

Oct. 26, 2012 Rise Set
Actual Time 9:33 AM AKDT 7:02 PM AKDT
Civil Twilight 8:53 AM AKDT 7:42 PM AKDT
Nautical Twilight 8:08 AM AKDT 8:27 PM AKDT
Astronomical Twilight 7:24 AM AKDT 9:11 PM AKDT
Moon 5:45 PM AKDT (10/26) 6:13 AM AKDT (10/26)
Length of Visible Light 10h 49m
Length of Day
9h 29m
Waxing Gibbous, 92% of the Moon is Illuminated
Oct 26
Waxing Gibbous
Oct 29
Full
Nov 6
Last Quarter
Nov 13
New
Nov 20
First Quarter

Hourly Weather History & Observations

Time (AKDT) Temp. Windchill Dew Point Humidity Pressure Visibility Wind Dir Wind Speed Gust Speed Precip Events Conditions
12:16 AM - - - N/A% - - North - - N/A   Unknown
12:36 AM - - - N/A% - - North - - N/A   Unknown
12:56 AM - - - N/A% - - North - - N/A   Unknown
1:16 AM - - - N/A% - - North - - N/A   Unknown
1:36 AM - - - N/A% - - North - - N/A   Unknown
1:56 AM - - - N/A% - - North - - N/A   Unknown
2:16 AM - - - N/A% - - North - - N/A   Unknown
2:36 AM - - - N/A% - - North - - N/A   Unknown
2:56 AM - - - N/A% - - North - - N/A   Unknown
3:16 AM - - - N/A% - - North - - N/A   Unknown
3:36 AM - - - N/A% - - North - - N/A   Unknown
3:56 AM - - - N/A% - - North - - N/A   Unknown
4:16 AM - - - N/A% - - North - - N/A   Unknown
4:36 AM - - - N/A% - - North - - N/A   Unknown
4:56 AM - - - N/A% - - North - - N/A   Unknown
5:56 AM - - - N/A% - - North - - N/A   Unknown
6:16 AM - - - N/A% - - North - - N/A   Unknown
6:36 AM - - - N/A% - - North - - N/A   Unknown
6:56 AM - - - N/A% - - North - - N/A   Unknown
7:16 AM - - - N/A% - - North - - N/A   Unknown
7:36 AM - - - N/A% - - North - - N/A   Unknown
7:56 AM - - - N/A% - - North - - N/A   Unknown
8:16 AM - - - N/A% - - North - - N/A   Unknown
8:36 AM - - - N/A% - - North - - N/A   Unknown
8:56 AM - - - N/A% - - North - - N/A   Unknown
9:16 AM - - - N/A% - - North - - N/A   Unknown
9:36 AM - - - N/A% - - North - - N/A   Unknown
9:56 AM - - - N/A% - - North - - N/A   Unknown
10:16 AM 30.2 °F 21.3 °F 15.8 °F 55% 30.27 in 10.0 mi ENE 10.4 mph - N/A   Unknown
10:36 AM 33.8 °F 26.4 °F 28.4 °F 81% 30.27 in 10.0 mi NE 9.2 mph - N/A   Clear
10:56 AM 35.6 °F 29.2 °F 30.2 °F 81% 30.27 in 10.0 mi NE 8.1 mph - N/A   Clear
11:16 AM 33.8 °F 28.6 °F 28.4 °F 81% 30.26 in 10.0 mi NE 5.8 mph - N/A   Clear
11:36 AM 35.6 °F 27.1 °F 28.4 °F 75% 30.25 in 4.0 mi NE 12.7 mph - N/A   Clear
11:56 AM 35.6 °F 27.1 °F 30.2 °F 81% 30.25 in 10.0 mi NE 12.7 mph - N/A   Clear
12:16 PM 37.4 °F 29.8 °F 30.2 °F 75% 30.25 in 10.0 mi NE 11.5 mph - N/A   Clear
12:36 PM 37.4 °F 32.1 °F 30.2 °F 75% 30.25 in 10.0 mi NE 6.9 mph - N/A   Clear
12:56 PM 37.4 °F 29.8 °F 30.2 °F 75% 30.25 in 10.0 mi NE 11.5 mph - N/A   Clear
1:16 PM 35.6 °F 28.0 °F 28.4 °F 75% 30.24 in 10.0 mi NE 10.4 mph - N/A   Clear
1:36 PM 37.4 °F 29.8 °F 30.2 °F 75% 30.23 in 10.0 mi ENE 11.5 mph - N/A   Clear
1:56 PM 37.4 °F 29.3 °F 30.2 °F 75% 30.22 in 10.0 mi ENE 12.7 mph - N/A   Clear
2:16 PM 37.4 °F 28.9 °F 30.2 °F 75% 30.21 in 10.0 mi NE 13.8 mph - N/A   Clear
2:36 PM 37.4 °F 28.9 °F 30.2 °F 75% 30.20 in 10.0 mi ENE 13.8 mph - N/A   Clear
2:56 PM 39.2 °F 31.6 °F 30.2 °F 70% 30.20 in 10.0 mi NE 12.7 mph - N/A   Clear
3:16 PM 37.4 °F 28.5 °F 30.2 °F 75% 30.19 in 10.0 mi NE 15.0 mph - N/A   Clear
3:36 PM 37.4 °F 28.5 °F 30.2 °F 75% 30.18 in 10.0 mi NE 15.0 mph - N/A   Clear
3:56 PM 37.4 °F 29.3 °F 30.2 °F 75% 30.18 in 10.0 mi ENE 12.7 mph - N/A   Clear
4:16 PM 37.4 °F 28.9 °F 32.0 °F 81% 30.17 in 10.0 mi NE 13.8 mph - 0.01 in   Clear
4:36 PM 37.4 °F 28.5 °F 30.2 °F 75% 30.16 in 10.0 mi NE 15.0 mph - 0.01 in   Clear
4:56 PM 39.2 °F 30.8 °F 32.0 °F 75% 30.15 in 10.0 mi NE 15.0 mph - 0.01 in   Clear
5:16 PM 37.4 °F 28.9 °F 32.0 °F 81% 30.14 in 10.0 mi NE 13.8 mph - N/A   Clear
5:36 PM 37.4 °F 28.9 °F 30.2 °F 75% 30.13 in 10.0 mi NE 13.8 mph - N/A   Clear
5:56 PM 35.6 °F 26.6 °F 30.2 °F 81% 30.13 in 10.0 mi NE 13.8 mph - N/A   Clear
6:16 PM 35.6 °F 27.1 °F 30.2 °F 81% 30.13 in 10.0 mi NE 12.7 mph - N/A   Clear
6:36 PM 35.6 °F 28.6 °F 30.2 °F 81% 30.12 in 10.0 mi NE 9.2 mph - N/A   Clear
6:56 PM 33.8 °F 25.3 °F 30.2 °F 87% 30.11 in 10.0 mi NE 11.5 mph - N/A   Clear
7:16 PM 33.8 °F 24.8 °F 30.2 °F 87% 30.11 in 10.0 mi NE 12.7 mph - N/A   Clear
7:36 PM 33.8 °F 24.8 °F 30.2 °F 87% 30.10 in 10.0 mi ENE 12.7 mph - N/A   Clear
8:16 PM 30.2 °F 21.3 °F 30.2 °F 100% 30.09 in 10.0 mi NE 10.4 mph - N/A   Clear
8:36 PM 28.4 °F 19.1 °F 28.4 °F 100% 30.09 in 10.0 mi NE 10.4 mph - N/A   Clear
8:56 PM 30.2 °F 20.8 °F 26.6 °F 86% 30.09 in 10.0 mi NE 11.5 mph - N/A   Clear
9:16 PM 28.4 °F 19.1 °F 28.4 °F 100% 30.09 in 10.0 mi NE 10.4 mph - N/A   Clear
9:36 PM 28.4 °F 18.5 °F 26.6 °F 93% 30.08 in 10.0 mi NE 11.5 mph - N/A   Clear
9:56 PM 28.4 °F 18.0 °F 26.6 °F 93% 30.07 in 10.0 mi NE 12.7 mph - N/A   Clear
10:16 PM 28.4 °F 17.5 °F 26.6 °F 93% 30.06 in 10.0 mi NE 13.8 mph - N/A   Clear
10:36 PM 28.4 °F 17.5 °F 26.6 °F 93% 30.06 in 10.0 mi NE 13.8 mph - N/A   Clear
10:56 PM 28.4 °F 18.5 °F 26.6 °F 93% 30.06 in 10.0 mi ENE 11.5 mph - N/A   Clear
11:16 PM 26.6 °F 16.2 °F 26.6 °F 100% 30.05 in 10.0 mi NE 11.5 mph - N/A   Clear
11:36 PM 26.6 °F 15.7 °F 24.8 °F 93% 30.05 in 10.0 mi NE 12.7 mph - N/A   Clear
11:56 PM 26.6 °F 15.2 °F 26.6 °F 100% 30.06 in 10.0 mi NE 13.8 mph - N/A   Clear